sat.trackr.live / text

‹ back to catalog

STARLINK-1231

NORAD 45212 · 2020-012AL

PAYLOAD ACTIVE UNKNOWN

§ Identity

Operator
Country
US
Launch date
2020-02-17
Launch site
AFETR
Launch vehicle
Mass (kg)
RCS (m²)

Purposes: comms

External: N2YO · Heavens-Above · Gunter

§ Orbital elements

Epoch: 2026-09-03T12:12:08.059104Z

Period
93.92 min
Inclination
53.0355°
Eccentricity
0.0003673
Mean motion
15.33177918 rev/d
Perigee alt
463.8 km
Apogee alt
468.9 km
Semi-major
6,844.5 km
B*
7.4208e-4
RAAN
270.8211°
Arg perigee
1.6300°
Mean anomaly
358.4712°
Rev number
36,240

§ Raw data

STARLINK-12311 45212U 20012AL  26246.50842661  .00023831  00000+0  74208-3 0  99912 45212  53.0355 270.8211 0003673   1.6300 358.4712 15.33177918362407

JSON: /api/v1/satellites/45212 · /tle

For live sub-satellite position, see the globe view (requires WebGL).

§ Visibility from observer

Set your observer location to see the next 7 days of passes ≥ 10°. The values pass through the URL so the page stays shareable.

No JS? Fill the form by hand. The geolocation button needs JavaScript.